Find Badr 6

NORAD ID: 33154 Int'l Des: 2008-034 Owner: ARAB Country: I-ARAB operational
HEOCIRCULAR

Aktuelle Ansicht

3D-Globus wird geladen...

Über Badr 6

Beschreibung wird geladen...

Nächste Überflüge

Passes for default location (London). Set your location on the main map for personalized predictions.

Höhenverlauf

Loading altitude history...

Zweizeiliger Elementsatz

1 33154U 08034B 26149.56598354 -.00000082 00000-0 00000-0 0 9999
2 33154 2.8234 79.6987 0011452 345.7439 221.5600 0.98746941 65488
Epoch: 29. Mai 2026 • Age: 14 hours

Aktueller Status

Höhe 36195.8 km
Geschwindigkeit 3.06 km/s
Subsatellitenpunkt 2.10°N, 166.86°W
Startdatum 7. Juli 2008
Alter 17.8 years
Typ other

Technische Details

Klassifizierung Payload
Masse 3346.00 kg
Trockenmasse 1510.00 kg
Gesamtmasse 3346.00 kg
Länge 2.90 m
Durchmesser 1.80 m
Spannweite 32.00 m
Form Box + 2 Pan + Dish
Hersteller ASTT
Bus-Typ Eurostar 2000+
Phasenstatus In Orbit
Besitzer/Staat ARAB/I-ARAB

Most Searched